Ellensburg, WA

3:05 AM PDT on June 26, 2017 (GMT -0700)
Bowers

Weather History for KELN - March, 2014

Change the Weather History Date:

Saturday, March 8, 2014

  Actual Average (KYKM) Record (KYKM)
Temperature  
Mean Temperature 40 °F -  
Max Temperature 51 °F 54 °F 70 °F (2004)
Min Temperature 30 °F 30 °F 7 °F (1951)
Degree Days  
Heating Degree Days 24    
Moisture  
Dew Point 35 °F    
Average Humidity 79    
Maximum Humidity 89    
Minimum Humidity 61    
Precipitation  
Precipitation 0.02 in - - ()
Sea Level Pressure  
Sea Level Pressure 29.99 in    
Wind  
Wind Speed 2 mph (NNE)    
Max Wind Speed 8 mph    
Max Gust Speed -    
Visibility 10 miles    
Events Rain    
Averages and records for this station are not official NWS values.
T = Trace of Precipitation, MM = Missing Value Source: NWS Daily Summary

Daily Weather History Graph

Daily Weather History Graph

Search for Another Location

Airport or City:

Trip Planner

Search our weather history database for the weather conditions in past years. The results will help you decide how hot, cold, wet, or windy it might be!

Date:

Astronomy

Mar. 08, 2014 Rise Set
Actual Time 6:28 AM PST 5:57 PM PST
Civil Twilight 5:58 AM PST 6:28 PM PST
Nautical Twilight 5:22 AM PST 7:03 PM PST
Astronomical Twilight 4:47 AM PST 7:39 PM PST
Moon 10:49 AM PST (3/8) 1:24 AM PST (3/8)
Length of Visible Light 12h 30m
Length of Day
11h 29m
First Quarter, 53% of the Moon is Illuminated
Mar 8
First Quarter
Mar 16
Full
Mar 23
Last Quarter
Mar 30
New
Apr 7
First Quarter

Hourly Weather History & Observations

Time (PST) Temp. Windchill Dew Point Humidity Pressure Visibility Wind Dir Wind Speed Gust Speed Precip Events Conditions
12:53 AM 30.9 °F - 27.0 °F 85% 30.19 in 10.0 mi Calm Calm - N/A   Clear
1:53 AM 32.0 °F 26.4 °F 27.0 °F 82% 30.19 in 10.0 mi SE 5.8 mph - N/A   Clear
2:53 AM 33.1 °F 30.0 °F 28.9 °F 85% 30.17 in 10.0 mi SSE 3.5 mph - N/A   Clear
3:53 AM 32.0 °F 27.5 °F 28.0 °F 85% 30.14 in 10.0 mi East 4.6 mph - N/A   Clear
4:53 AM 30.9 °F - 28.0 °F 89% 30.14 in 10.0 mi Calm Calm - N/A   Clear
5:53 AM 32.0 °F 26.4 °F 28.9 °F 88% 30.14 in 10.0 mi North 5.8 mph - N/A   Clear
6:53 AM 33.1 °F - 30.0 °F 89% 30.15 in 10.0 mi Calm Calm - N/A   Clear
7:53 AM 34.0 °F - 30.0 °F 85% 30.13 in 10.0 mi Calm Calm - N/A   Clear
8:53 AM 36.0 °F 33.3 °F 32.0 °F 86% 30.12 in 10.0 mi NNE 3.5 mph - N/A   Mostly Cloudy
9:53 AM 37.9 °F - 33.1 °F 83% 30.10 in 10.0 mi Calm Calm - N/A   Mostly Cloudy
10:53 AM 39.0 °F - 33.1 °F 79% 30.08 in 10.0 mi Calm Calm - N/A   Overcast
11:53 AM 39.9 °F - 34.0 °F 79% 30.06 in 10.0 mi Calm Calm - N/A   Mostly Cloudy
12:53 PM 45.0 °F 43.5 °F 36.0 °F 71% 30.02 in 10.0 mi ESE 3.5 mph - N/A   Scattered Clouds
1:53 PM 48.0 °F - 37.0 °F 66% 29.99 in 10.0 mi Calm Calm - N/A   Scattered Clouds
2:53 PM 50.0 °F - 37.0 °F 61% 29.95 in 10.0 mi Calm Calm - N/A   Scattered Clouds
3:53 PM 51.1 °F - 37.9 °F 61% 29.92 in 10.0 mi Calm Calm - 0.00 in Rain Light Rain
4:53 PM 48.9 °F - 41.0 °F 74% 29.91 in 10.0 mi NW 4.6 mph - 0.00 in Rain Light Rain
5:53 PM 46.9 °F - 41.0 °F 80% 29.89 in 10.0 mi Calm Calm - 0.01 in Rain Light Rain
6:53 PM 48.9 °F - 39.9 °F 71% 29.87 in 10.0 mi ENE 3.5 mph - 0.00 in   Overcast
7:53 PM 48.9 °F - 39.9 °F 71% 29.84 in 10.0 mi ENE 3.5 mph - N/A   Overcast
8:53 PM 48.0 °F - 41.0 °F 77% 29.83 in 10.0 mi NE 4.6 mph - 0.00 in Rain Light Rain
9:53 PM 48.0 °F - 42.1 °F 80% 29.81 in 10.0 mi North 5.8 mph - 0.01 in Rain Light Rain
10:23 PM 48.0 °F - 43.0 °F 83% 29.79 in 10.0 mi NNE 4.6 mph - 0.00 in   Overcast
10:41 PM 46.0 °F 43.1 °F 41.0 °F 83% 29.79 in 9.0 mi West 5.8 mph - 0.00 in   Overcast
10:53 PM 46.0 °F 43.9 °F 42.1 °F 86% 29.81 in 9.0 mi WNW 4.6 mph - 0.00 in   Overcast
11:53 PM 46.0 °F 41.9 °F 41.0 °F 83% 29.82 in 10.0 mi NW 8.1 mph - 0.00 in   Overcast